Weather History for LKPR - October, 2012

Change the Weather History Date:

Monday, October 22, 2012

  Actual Average Record
Temperature  
Mean Temperature 47 °F -  
Max Temperature 50 °F 46 °F 68 °F (2005)
Min Temperature 44 °F 34 °F 24 °F (1997)
Degree Days  
Heating Degree Days 18    
Moisture  
Dew Point 46 °F    
Average Humidity 97    
Maximum Humidity 100    
Minimum Humidity 84    
Precipitation  
Precipitation 0.00 in 0.04 in - ()
Sea Level Pressure  
Sea Level Pressure 30.20 in    
Wind  
Wind Speed 3 mph ()    
Max Wind Speed 5 mph    
Max Gust Speed -    
Visibility 1.5 miles    
Events Fog    
Averages and records for this station are not official NWS values.
T = Trace of Precipitation, MM = Missing Value Source: Averaged Metar Reports

Daily Weather History Graph

Daily Weather History Graph

Search for Another Location

Airport or City:

Trip Planner

Search our weather history database for the weather conditions in past years. The results will help you decide how hot, cold, wet, or windy it might be!

Date:

Astronomy

Oct. 22, 2012 Rise Set
Actual Time 7:36 AM CEST 5:57 PM CEST
Civil Twilight 7:03 AM CEST 6:30 PM CEST
Nautical Twilight 6:25 AM CEST 7:08 PM CEST
Astronomical Twilight 5:48 AM CEST 7:45 PM CEST
Moon 2:32 PM CEST (10/22) No Moon Set
Length of Visible Light 11h 26m
Length of Day
10h 20m
First Quarter, 53% of the Moon is Illuminated
Oct 22
First Quarter
Oct 29
Full
Nov 7
Last Quarter
Nov 13
New
Nov 20
First Quarter

Hourly Weather History & Observations

Time (CEST) Temp. Windchill Dew Point Humidity Pressure Visibility Wind Dir Wind Speed Gust Speed Precip Events Conditions
12:00 AM 46.4 °F - 44.6 °F 93% 30.18 in 1.7 mi Variable 2.3 mph - N/A   Overcast
12:30 AM 46.4 °F 45.2 °F 44.6 °F 93% 30.18 in 1.7 mi North 3.5 mph - N/A   Overcast
1:00 AM 46.4 °F 45.2 °F 44.6 °F 93% 30.18 in 0.4 mi North 3.5 mph - N/A   Unknown
1:04 AM 46.4 °F 44.3 °F 44.6 °F 93% 30.18 in 0.2 mi North 4.6 mph - N/A   Unknown
1:12 AM 44.6 °F 42.2 °F 44.6 °F 100% 30.18 in 0.2 mi North 4.6 mph - N/A Fog Fog
1:15 AM 44.6 °F 43.1 °F 44.6 °F 100% 30.18 in 0.3 mi North 3.5 mph - N/A Fog Fog
1:21 AM 44.6 °F 43.1 °F 44.6 °F 100% 30.18 in 0.2 mi North 3.5 mph - N/A Fog Fog
1:30 AM 44.6 °F 43.1 °F 44.6 °F 100% 30.18 in 0.2 mi North 3.5 mph - N/A   Unknown
1:37 AM 44.6 °F 43.1 °F 44.6 °F 100% 30.18 in 0.2 mi North 3.5 mph - N/A   Unknown
1:43 AM 44.6 °F 43.1 °F 44.6 °F 100% 30.18 in 0.2 mi NNW 3.5 mph - N/A   Unknown
2:00 AM 45 °F - 45 °F 100% 30.22 in 0 mi North 4.5 mph - - Fog Patches of Fog
2:00 AM 44.6 °F - 44.6 °F 100% 30.18 in 0.4 mi North 2.3 mph - N/A Fog Patches of Fog
2:09 AM 44.6 °F - 44.6 °F 100% 30.18 in 0.5 mi North 2.3 mph - N/A Fog Patches of Fog
2:13 AM 44.6 °F - 44.6 °F 100% 30.18 in 0.6 mi Variable 2.3 mph - N/A Fog Patches of Fog
2:31 AM 44.6 °F - 44.6 °F 100% 30.18 in 0.9 mi NW 2.3 mph - N/A Fog Patches of Fog
2:36 AM 44.6 °F - 44.6 °F 100% 30.18 in 0.9 mi Variable 2.3 mph - N/A Fog Patches of Fog
2:50 AM 44.6 °F - 44.6 °F 100% 30.18 in 0.7 mi Variable 2.3 mph - N/A Fog Patches of Fog
3:00 AM 44.6 °F - 44.6 °F 100% 30.18 in 0.5 mi Variable 2.3 mph - N/A Fog Fog
3:10 AM 44.6 °F - 44.6 °F 100% 30.18 in 0.3 mi NNW 2.3 mph - N/A Fog Fog
3:30 AM 44.6 °F - 44.6 °F 100% 30.18 in 0.3 mi Variable 2.3 mph - N/A Fog Fog
3:37 AM 44.6 °F - 44.6 °F 100% 30.18 in 0.3 mi Variable 1.2 mph - N/A Fog Fog
3:42 AM 44.6 °F - 44.6 °F 100% 30.18 in 0.4 mi Variable 1.2 mph - N/A Fog Fog
3:50 AM 44.6 °F - 44.6 °F 100% 30.15 in 0.4 mi Variable 2.3 mph - N/A Fog Fog
4:00 AM 44.6 °F - 44.6 °F 100% 30.18 in 0.3 mi Variable 2.3 mph - N/A Fog Fog
4:03 AM 44.6 °F - 44.6 °F 100% 30.18 in 0.3 mi NNW 2.3 mph - N/A Fog Fog
4:10 AM 44.6 °F - 44.6 °F 100% 30.18 in 0.4 mi Variable 2.3 mph - N/A   Unknown
4:15 AM 44.6 °F - 44.6 °F 100% 30.18 in 0.5 mi NNW 2.3 mph - N/A   Unknown
4:19 AM 44.6 °F - 44.6 °F 100% 30.18 in 0.4 mi NNW 2.3 mph - N/A   Unknown
4:22 AM 44.6 °F - 44.6 °F 100% 30.18 in 0.4 mi North 2.3 mph - N/A   Unknown
4:30 AM 44.6 °F - 44.6 °F 100% 30.15 in 0.5 mi North 2.3 mph - N/A Fog Patches of Fog
4:44 AM 44.6 °F 43.1 °F 44.6 °F 100% 30.15 in 1.2 mi NNW 3.5 mph - N/A Fog Patches of Fog
5:00 AM 44.6 °F 43.1 °F 44.6 °F 100% 30.18 in 1.0 mi NNW 3.5 mph - N/A Fog Patches of Fog
5:19 AM 44.6 °F 43.1 °F 44.6 °F 100% 30.18 in 1.1 mi NNW 3.5 mph - N/A Fog Patches of Fog
5:30 AM 44.6 °F 43.1 °F 44.6 °F 100% 30.18 in 1.2 mi NNW 3.5 mph - N/A Fog Overcast
6:00 AM 44.6 °F - 44.6 °F 100% 30.18 in 1.2 mi Variable 2.3 mph - N/A Fog Overcast
6:17 AM 44.6 °F - 44.6 °F 100% 30.18 in 1.6 mi Variable 2.3 mph - N/A Fog Overcast
6:30 AM 44.6 °F - 44.6 °F 100% 30.18 in 1.9 mi Variable 2.3 mph - N/A   Overcast
7:00 AM 44.6 °F - 44.6 °F 100% 30.18 in 2.2 mi Variable 2.3 mph - N/A   Overcast
7:30 AM 44.6 °F - 44.6 °F 100% 30.18 in 1.9 mi Variable 1.2 mph - N/A   Overcast
7:34 AM 44.6 °F - 44.6 °F 100% 30.18 in 1.7 mi Variable 1.2 mph - N/A   Overcast
8:00 AM 44.6 °F - 44.6 °F 100% 30.18 in 1.4 mi Variable 2.3 mph - N/A   Overcast
8:30 AM 46.4 °F - 44.6 °F 93% 30.21 in 1.6 mi Variable 2.3 mph - N/A   Overcast
9:00 AM 46.4 °F - 44.6 °F 93% 30.21 in 1.4 mi Variable 2.3 mph - N/A   Overcast
9:17 AM 46.4 °F - 46.4 °F 100% 30.21 in 1.6 mi Variable 2.3 mph - N/A   Overcast
9:30 AM 46.4 °F 45.2 °F 46.4 °F 100% 30.21 in 1.6 mi North 3.5 mph - N/A   Overcast
10:00 AM 46.4 °F 45.2 °F 46.4 °F 100% 30.21 in 1.2 mi NNE 3.5 mph - N/A   Overcast
10:30 AM 46.4 °F - 46.4 °F 100% 30.21 in 1.2 mi Variable 1.2 mph - N/A   Overcast
11:00 AM 46.4 °F - 46.4 °F 100% 30.21 in 1.5 mi Variable 2.3 mph - N/A   Overcast
11:30 AM 48.2 °F - 46.4 °F 93% 30.21 in 1.7 mi Variable 2.3 mph - N/A   Overcast
12:00 PM 48.2 °F - 48.2 °F 100% 30.21 in - NW 3.5 mph - N/A   Overcast
12:30 PM 48.2 °F - 48.2 °F 100% 30.21 in - North 3.5 mph - N/A   Overcast
1:00 PM 48.2 °F - 48.2 °F 100% 30.21 in - Variable 2.3 mph - N/A   Overcast
1:30 PM 48.2 °F - 48.2 °F 100% 30.21 in - Variable 2.3 mph - N/A   Overcast
2:00 PM 48.2 °F - 48.2 °F 100% 30.21 in 2.5 mi North 4.6 mph - N/A   Overcast
2:30 PM 50.0 °F - 48.2 °F 94% 30.21 in 2.2 mi NNW 3.5 mph - N/A   Overcast
3:00 PM 50.0 °F - 48.2 °F 94% 30.21 in 1.7 mi North 4.6 mph - N/A   Overcast
3:30 PM 50.0 °F - 48.2 °F 94% 30.21 in - North 3.5 mph - N/A   Overcast
4:00 PM 50.0 °F - 48.2 °F 94% 30.21 in - North 3.5 mph - N/A   Overcast
4:30 PM 50.0 °F - 48.2 °F 94% 30.21 in - North 3.5 mph - N/A   Overcast
5:00 PM 50.0 °F - 48.2 °F 94% 30.21 in - Variable 1.2 mph - N/A   Overcast
5:30 PM 50.0 °F - 48.2 °F 94% 30.21 in 3.1 mi Variable 2.3 mph - N/A   Overcast
6:00 PM 50.0 °F - 48.2 °F 94% 30.21 in 3.1 mi North 3.5 mph - N/A   Overcast
6:30 PM 50.0 °F - 46.4 °F 87% 30.21 in 4.3 mi Variable 1.2 mph - N/A   Overcast
7:00 PM 50.0 °F - 46.4 °F 87% 30.24 in 5.0 mi Variable 2.3 mph - N/A   Overcast
7:30 PM 50.0 °F - 46.4 °F 87% 30.24 in 5.6 mi NE 3.5 mph - N/A   Overcast
8:00 PM 50 °F - 47 °F 84% 30.26 in 5 mi East 2.2 mph - -   Mist
8:00 PM 50.0 °F - 46.4 °F 87% 30.24 in 5.0 mi NE 3.5 mph - N/A   Overcast
8:30 PM 50.0 °F - 46.4 °F 87% 30.24 in 3.7 mi Variable 2.3 mph - N/A   Overcast
9:00 PM 50.0 °F - 48.2 °F 94% 30.24 in 2.8 mi NNW 3.5 mph - N/A   Overcast
9:30 PM 50.0 °F - 48.2 °F 94% 30.24 in 2.5 mi Calm Calm - N/A   Overcast
10:00 PM 50.0 °F - 48.2 °F 94% 30.24 in 2.5 mi Variable 2.3 mph - N/A   Overcast
10:30 PM 50.0 °F - 48.2 °F 94% 30.24 in 2.5 mi Variable 1.2 mph - N/A   Overcast
10:51 PM 50.0 °F - 48.2 °F 94% 30.27 in 2.2 mi NNW 3.5 mph - N/A   Overcast
11:00 PM 50.0 °F - 48.2 °F 94% 30.27 in 2.2 mi NW 2.3 mph - N/A   Overcast
11:15 PM 50.0 °F - 48.2 °F 94% 30.27 in 1.9 mi Variable 2.3 mph - N/A   Overcast
11:30 PM 50.0 °F - 48.2 °F 94% 30.27 in 1.6 mi North 2.3 mph - N/A   Overcast
11:38 PM 50.0 °F - 48.2 °F 94% 30.27 in 0.7 mi Variable 2.3 mph - N/A Fog Overcast
11:44 PM 50.0 °F - 48.2 °F 94% 30.27 in 0.5 mi North 3.5 mph - N/A   Unknown
11:47 PM 50.0 °F - 48.2 °F 94% 30.27 in 0.3 mi North 2.3 mph - N/A   Unknown